User: anonymous
Location: Caltech
(34.1382°N, 118.1253°W)
Time: 20:41:36
(UTC-07:00)
Language:

COSMOS 2428 - Orbit

View from above orbital plane
View from above orbital plane
View from above satellite
View from above satellite

Ground track
Ground track

The orbit data is extracted from the following two-line orbital elements,

1 31792U 07029A   14293.47802421  .00000337  00000-0  20819-3 0  1029
2 31792 070.9711 287.0370 0011514 290.8890 225.4369 14.12449220377001
Epoch (UTC): 20 October 2014 11:28:21
Eccentricity: 0.0011514
inclination: 70.9711°
perigee height: 842 km
apogee height: 859 km
right ascension of ascending node: 287.0370°
argument of perigee: 290.8890°
revolutions per day: 14.12449220
mean anomaly at epoch: 225.4369°
orbit number at epoch: 37700

The dashed part of the orbit path shows where the satellite is in the earth's shadow,  

DLR